Location: Gad�tanya
(48.0500°N, 20.8500°E)
Time: 11:17:12
(UTC+00:00)

Nimbus 7 Rocket - Pass Details

Date: 05 July 2020
Orbit: 922 x 965 km, 99.4° (Epoch: 15 August)

Event Time Altitude Azimuth Distance (km) Brightness Sun altitude
Rises 22:10:42 0° 14° (NNE) 3,620 8.7 -18.9°
Reaches altitude 10° 22:13:10 10° 14° (NNE) 2,665 7.8 -19.0°
Maximum altitude 22:19:07 80° 289° (WNW) 951 4.4 -19.1°
Enters shadow 22:22:21 29° 205° (SSW) 1,650 5.2 -19.2°
